Snowfall_Accumulation
0.1 0.1 0.2 0.3 0.4 0.4 0.6 0.4 0.4 0.3 0.3 0.3 0.2 0.0 0.0 0.0 0.0 0.0 0.0 0.0 0.0 0.0 0.0 0.0 0.0 0.0 0.0 0.0 0.0 0.0 0.0 0.0 0.0 0.0 0.0 0.0 0.0 0.0 0.0 0.0 0.0 0.0 0.0 0.0
0.2 0.3 0.4 0.3 0.3 0.2 0.4 0.5 0.7 0.6 0.8 0.3 0.0 0.0 0.0 0.0 0.0 0.0 0.0 0.0 0.0 0.0 0.0 0.0 0.0 0.0 0.0 0.0 0.0 0.0 0.0 0.0 0.0 0.0 0.0 0.0 0.0 0.0 0.0 0.0 0.0 0.0 0.0 0.0
0.4 0.3 0.5 0.6 0.5 0.5 0.5 0.5 0.8 1.5 1.7 0.4 0.2 0.2 0.1 0.0 0.0 0.0 0.0 0.0 0.0 0.0 0.0 0.0 0.0 0.0 0.0 0.0 0.0 0.0 0.0 0.0 0.0 0.0 0.0 0.0 0.0 0.0 0.0 0.0 0.0 0.0 0.0 0.0
0.7 0.8 1.5 0.8 0.2 0.4 0.6 0.4 0.5 0.9 1.2 0.8 0.7 0.5 0.2 0.0 0.0 0.0 0.0 0.0 0.0 0.0 0.0 0.0 0.0 0.0 0.0 0.0 0.0 0.0 0.0 0.0 0.0 0.0 0.0 0.0 0.0 0.0 0.0 0.0 0.0 0.0 0.0 0.0
1.0 1.5 0.9 0.4 0.3 0.4 0.6 0.7 0.5 0.6 0.5 0.6 0.7 0.5 0.4 0.0 0.0 0.0 0.0 0.0 0.0 0.0 0.0 0.0 0.0 0.0 0.0 0.0 0.0 0.0 0.0 0.0 0.0 0.0 0.0 0.0 0.0 0.0 0.0 0.0 0.0 0.0 0.0 0.0
1.2 2.3 2.3 1.1 0.3 0.1 0.1 0.7 0.4 0.5 0.5 0.5 0.5 0.8 1.0 0.0 0.0 0.0 0.0 0.0 0.0 0.0 0.0 0.0 0.0 0.0 0.0 0.0 0.0 0.0 0.0 0.0 0.0 0.0 0.0 0.0 0.0 0.0 0.0 0.0 0.0 0.0 0.0 0.0
1.4 2.0 1.3 0.5 0.1 0.0 0.9 2.3 0.3 0.4 0.4 0.4 0.5 1.2 1.4 0.0 0.0 0.0 0.0 0.0 0.0 0.0 0.0 0.0 0.0 0.0 0.0 0.0 0.0 0.0 0.0 0.0 0.0 0.0 0.0 0.0 0.0 0.0 0.0 0.0 0.0 0.0 0.0 0.0
1.6 2.6 1.9 0.1 0.2 0.6 0.6 0.2 0.2 0.3 0.3 0.3 0.3 0.3 0.3 0.0 0.0 0.0 0.0 0.0 0.0 0.0 0.0 0.0 0.0 0.0 0.0 0.0 0.0 0.0 0.0 0.0 0.0 0.0 0.0 0.0 0.0 0.0 0.0 0.0 0.0 0.0 0.0 0.0
1.2 1.2 0.3 0.0 0.0 0.0 0.0 0.1 0.1 0.1 0.2 0.2 0.2 0.2 0.2 0.0 0.0 0.0 0.0 0.0 0.0 0.0 0.0 0.0 0.0 0.0 0.0 0.0 0.0 0.0 0.0 0.0 0.0 0.0 0.0 0.0 0.0 0.0 0.0 0.0 0.0 0.1 0.0 0.0
1.1 0.7 0.2 0.0 0.0 0.0 0.0 0.0 0.0 0.0 0.0 0.0 0.1 0.1 0.1 0.0 0.0 0.0 0.0 0.0 0.0 0.0 0.0 0.0 0.0 0.0 0.0 0.0 0.0 0.0 0.0 0.0 0.0 0.0 0.0 0.0 0.0 0.0 0.0 0.1 0.1 0.1 0.1 0.0
0.9 0.2 0.1 0.1 0.0 0.0 0.0 0.0 0.0 0.0 0.0 0.0 0.0 0.0 0.0 0.0 0.0 0.0 0.0 0.0 0.0 0.0 0.0 0.0 0.0 0.0 0.0 0.0 0.0 0.0 0.0 0.0 0.0 0.0 0.0 0.0 0.0 0.0 0.1 0.1 0.0 0.0 0.0 0.0
0.8 0.1 0.1 0.1 0.0 0.0 0.0 0.0 0.0 0.0 0.0 0.0 0.0 0.0 0.0 0.0 0.0 0.0 0.0 0.0 0.0 0.0 0.0 0.0 0.0 0.0 0.0 0.0 0.0 0.0 0.0 0.0 0.0 0.0 0.0 0.0 0.0 0.1 0.0 0.0 0.0 0.0 0.0 0.0
0.2 0.1 0.1 0.0 0.0 0.0 0.0 0.0 0.0 0.0 0.0 0.0 0.0 0.0 0.0 0.0 0.0 0.0 0.0 0.0 0.0 0.0 0.0 0.0 0.0 0.0 0.0 0.0 0.0 0.0 0.0 0.0 0.0 0.0 0.1 0.1 0.1 0.1 0.1 0.0 0.0 0.0 0.0 0.0
0.1 0.1 0.1 0.1 0.1 0.0 0.0 0.0 0.0 0.0 0.0 0.0 0.0 0.0 0.0 0.0 0.0 0.0 0.0 0.0 0.1 0.1 0.1 0.0 0.0 0.0 0.0 0.0 0.0 0.0 0.0 0.0 0.0 0.1 0.1 0.1 0.1 0.2 0.2 0.2 0.2 0.0 0.0 0.0
0.0 0.1 0.1 0.1 0.2 0.1 0.1 0.1 0.1 0.1 0.0 0.0 0.0 0.0 0.0 0.2 0.2 0.2 0.0 0.0 0.0 0.0 0.0 0.0 0.0 0.0 0.0 0.0 0.0 0.0 0.0 0.0 0.1 0.1 0.1 0.2 0.2 0.3 0.4 0.4 0.6 0.6 0.3 0.2
0.0 0.0 0.1 0.1 0.2 0.3 0.2 0.1 0.2 0.3 0.2 0.1 0.3 0.3 0.3 0.3 0.4 0.3 0.3 0.3 0.3 0.3 0.3 0.0 0.0 0.0 0.0 0.0 0.0 0.0 0.0 0.0 0.0 0.1 0.1 0.2 0.4 0.5 0.6 0.6 0.6 0.7 0.6 0.5
0.3 0.3 0.3 0.3 0.4 0.5 0.4 0.5 0.5 0.3 0.3 0.4 0.4 0.3 0.3 0.3 0.3 0.3 0.3 0.3 0.0 0.2 0.0 0.0 0.0 0.0 0.0 0.0 0.0 0.0 0.0 0.0 0.1 0.1 0.1 0.3 0.4 0.5 0.5 0.6 0.6 0.6 0.5 0.3
0.4 0.3 0.3 0.3 0.4 0.5 0.5 0.4 0.3 0.3 0.4 0.4 0.3 0.2 0.3 0.3 0.3 0.3 0.2 0.2 0.2 0.2 0.0 0.0 0.0 0.0 0.0 0.0 0.0 0.0 0.0 0.0 0.1 0.1 0.2 0.3 0.3 0.3 0.3 0.4 0.5 0.4 0.4 0.3
0.4 0.3 0.3 0.2 0.3 0.3 0.2 0.4 0.3 0.2 0.3 0.2 0.3 0.3 0.3 0.2 0.2 0.1 0.1 0.2 0.3 0.4 0.3 0.0 0.0 0.0 0.0 0.0 0.0 0.0 0.0 0.1 0.1 0.1 0.2 0.3 0.2 0.2 0.2 0.2 0.2 0.2 0.2 0.3
0.2 0.3 0.1 0.1 0.1 0.1 0.2 0.2 0.1 0.1 0.1 0.1 0.2 0.2 0.2 0.2 0.1 0.0 0.1 0.3 0.4 0.4 0.4 0.1 0.1 0.1 0.0 0.0 0.0 0.0 0.0 0.1 0.3 0.4 0.2 0.1 0.1 0.2 0.1 0.1 0.1 0.1 0.1 0.2
0.0 0.0 0.2 0.2 0.1 0.0 0.0 0.1 0.1 0.2 0.1 0.1 0.1 0.3 0.3 0.2 0.2 0.3 0.5 0.6 0.4 0.4 0.2 0.2 0.1 0.1 0.1 0.1 0.1 0.1 0.3 0.4 0.4 0.4 0.2 0.2 0.2 0.4 0.4 0.2 0.2 0.2 0.2 0.3
0.0 0.1 0.1 0.0 0.1 0.2 0.1 0.1 0.1 0.2 0.3 0.2 0.2 0.1 0.2 0.2 0.3 0.3 0.4 0.5 0.5 0.3 0.3 0.3 0.2 0.2 0.3 0.2 0.4 0.5 0.5 0.5 0.4 0.3 0.3 0.5 0.5 0.6 0.7 0.5 0.4 0.5 0.6 0.6
0.2 0.1 0.1 0.1 0.1 0.2 0.4 0.3 0.2 0.3 0.3 0.4 0.2 0.1 0.2 0.4 0.5 0.8 1.0 0.6 0.5 0.4 0.4 0.3 0.3 0.3 0.2 0.3 0.4 0.5 0.5 0.4 0.2 0.3 0.3 0.4 0.5 0.5 0.6 0.7 0.6 0.6 0.5 0.6
0.1 0.2 0.1 0.1 0.2 0.3 0.5 0.6 0.4 0.4 0.4 0.4 0.3 0.3 0.3 0.7 0.8 0.8 1.0 0.7 0.6 0.4 0.4 0.3 0.3 0.2 0.1 0.1 0.3 0.2 0.2 0.2 0.2 0.4 0.3 0.3 0.5 0.5 0.5 0.5 0.5 0.5 0.4 0.5
0.2 0.1 0.1 0.1 0.2 0.3 0.4 0.4 0.4 0.3 0.2 0.3 0.2 0.4 0.4 0.7 0.9 1.0 1.0 1.0 0.7 0.6 0.4 0.3 0.2 0.1 0.1 0.2 0.2 0.2 0.2 0.2 0.3 0.3 0.5 0.5 0.6 0.6 0.6 0.5 0.6 0.6 0.6 0.5
0.3 0.3 0.3 0.3 0.4 0.4 0.5 0.5 0.3 0.3 0.3 0.3 0.3 0.3 0.5 0.6 0.8 0.9 1.0 1.0 1.0 1.1 0.9 0.5 0.4 0.2 0.4 0.4 0.3 0.4 0.4 0.4 0.4 0.4 0.5 0.5 0.6 0.6 0.6 0.6 0.5 0.6 0.6 0.5
0.3 0.3 0.2 0.2 0.2 0.3 0.5 0.4 0.5 0.3 0.3 0.3 0.3 0.4 0.5 0.6 0.7 0.7 0.7 0.8 1.0 1.1 0.9 0.5 0.4 0.4 0.5 0.6 0.6 0.6 0.6 0.5 0.5 0.5 0.5 0.4 0.6 0.7 0.7 0.6 0.7 0.6 0.5 0.6